Lid_Strength_Index
-1 -1 -1 -1 -1 -1 -1 -1 -1 -1 -1 -1 -1 -2 -2 -1 -1 0 3 1 -0 -0 0 0 1 2 2 3 3 4 10 12 10 10 9 7 7 6 6 6 6 5 5 4 2
-1 -1 -2 -2 -2 -1 -1 -1 -1 -1 -1 -1 -1 -2 -2 -1 1 3 -1 -3 -2 -1 1 3 4 3 5 5 5 7 11 10 7 7 8 7 8 7 7 7 7 6 4 3 3
-1 -1 -1 -1 -1 -1 -1 -1 -1 -1 -1 -1 -1 -1 -1 -1 4 5 -2 -3 -2 -1 0 1 2 4 6 5 6 7 10 7 6 6 6 7 7 7 8 8 7 6 5 4 4
-0 -1 -1 -1 -1 -2 -1 -1 -1 -1 -1 -1 -1 -1 -1 1 13 2 -2 -2 -2 -1 1 3 4 6 7 8 6 9 7 6 6 5 6 7 6 7 8 7 6 6 4 4 4
1 0 -1 -1 -1 -1 -1 -1 -1 -1 -1 -1 -1 -1 1 5 6 -0 -2 -1 -1 1 3 4 5 6 8 7 6 8 7 6 5 6 6 6 7 7 7 5 5 5 6 4 4
1 1 1 -0 -1 -1 -1 -1 -1 -1 -1 -1 -2 -1 3 9 2 0 -0 0 1 2 3 3 5 4 6 7 7 6 6 6 6 6 6 7 7 7 6 4 5 6 6 5 4
1 1 1 1 0 -0 -1 -1 -1 -1 -1 -1 -2 1 5 7 2 2 -0 1 0 1 3 2 2 5 5 7 5 6 9 7 7 6 7 6 9 9 6 5 6 5 6 6 4
1 1 1 0 0 -0 -0 -0 -1 -1 -1 -2 -2 2 7 2 2 1 1 1 0 0 2 1 2 4 6 5 6 9 9 13 8 7 6 7 12 7 5 5 6 6 7 6 5
1 0 0 0 -0 -0 -1 -1 -1 -1 -1 -1 1 3 7 1 4 3 1 3 2 1 1 1 3 6 6 10 11 10 14 12 11 6 7 8 11 7 5 5 6 6 6 5 6
0 0 -0 -0 -0 -0 -1 -1 -1 -1 -0 -0 1 6 6 7 4 4 0 1 3 4 5 5 7 9 10 11 17 14 13 11 11 8 8 9 9 7 6 6 7 6 6 6 5
1 1 0 -1 -1 -1 -0 1 4 5 4 7 6 7 6 5 3 5 2 3 4 6 10 8 11 13 11 10 10 10 11 11 9 7 9 9 9 8 7 6 6 6 6 6 6
1 1 1 -0 -1 -1 -0 4 4 3 8 4 4 5 3 4 7 6 3 6 7 11 8 11 13 9 8 8 10 10 12 12 9 8 9 10 10 8 7 7 6 6 6 5 5
-0 0 0 0 -1 -0 2 3 -0 1 8 7 5 5 5 3 7 7 5 6 9 10 10 12 10 8 9 10 11 11 12 12 12 9 9 11 12 10 8 7 6 5 5 5 5
-1 -1 -0 0 1 1 3 1 -0 1 12 11 9 6 5 4 7 4 3 6 8 11 9 11 8 9 10 11 10 14 9 10 11 13 17 11 18 12 10 8 7 6 5 5 5
-1 -1 -1 -1 2 4 2 -0 -0 3 20 10 9 3 5 8 7 7 3 6 9 10 10 12 10 10 12 11 9 12 9 10 11 13 14 14 17 13 10 10 8 7 6 6 5
-1 -1 -1 0 1 1 -0 0 2 14 20 13 9 9 9 8 7 6 6 4 5 9 9 9 7 8 9 8 8 8 11 11 11 13 19 15 15 15 12 10 8 7 7 6 5
-1 -1 -0 -0 4 0 0 4 14 18 11 13 12 10 10 11 10 9 10 11 12 15 14 10 10 8 7 10 9 10 13 19 20 20 20 13 15 14 10 8 8 7 7 6 6
-1 -1 -0 0 -0 -0 3 10 18 13 13 10 11 10 13 11 11 10 11 13 10 10 13 15 17 10 8 10 12 12 13 18 23 22 19 13 18 14 8 6 6 6 6 5 6
-1 1 2 1 -0 1 7 15 15 13 10 12 11 14 14 12 11 11 12 12 10 9 14 15 14 8 8 8 9 12 15 11 16 16 19 17 14 10 8 8 8 7 7 7 6
2 3 3 -0 -0 3 10 13 12 9 9 9 15 12 15 14 14 13 13 10 10 8 7 10 15 10 9 8 9 10 9 16 16 21 22 18 18 15 12 10 8 9 8 8 8
3 7 2 -0 1 7 13 12 10 8 8 11 12 13 13 14 13 14 13 10 8 9 8 9 11 12 10 12 13 12 14 14 14 16 20 21 18 10 10 9 10 10 10 9 10
4 10 2 1 9 9 12 10 7 8 8 9 9 10 13 12 13 13 13 10 7 8 11 9 12 15 12 9 9 9 12 13 17 18 17 18 17 8 8 8 8 9 9 9 9
7 7 2 3 12 12 10 10 9 9 10 10 11 9 9 12 14 12 11 7 7 8 10 9 14 18 17 13 11 12 11 11 12 13 17 19 16 8 8 9 9 9 9 9 8
6 11 7 6 6 10 11 11 11 8 9 9 10 8 10 11 10 12 11 8 7 7 7 8 13 15 17 15 12 14 12 11 12 16 15 15 14 10 9 9 9 9 9 9 9
6 9 8 12 10 9 9 9 12 12 9 9 11 10 11 13 12 12 10 9 8 7 8 9 14 13 12 11 11 12 13 12 13 13 15 13 13 10 9 9 9 9 9 9 9
8 9 7 9 8 9 10 10 11 10 10 11 12 11 10 12 11 12 10 10 11 9 10 9 15 13 16 12 12 14 12 11 12 12 12 12 12 8 7 8 8 9 9 9 9
4 4 6 8 9 10 10 10 10 9 9 8 10 11 11 9 7 7 7 8 8 10 11 12 13 15 17 13 13 16 13 12 11 10 11 14 10 8 10 8 7 8 8 9 9